Location: Alladorf
(49.9620°N, 11.3790°E)
Time: 21:28:28
(UTC+00:00)

USA 305 - Pass Details

Date: 29 November 2020
Orbit: 565 x 578 km, 54.0° (Epoch: 22 January)

Event Time Altitude Azimuth Distance (km) Brightness Sun altitude
Exits shadow 04:04:51 44° 29° (NNE) 810 3.7 -25.5°
Drops below altitude 10° 04:08:21 10° 74° (ENE) 1,896 6.5 -25.0°
Sets 04:10:40 0° 80° (E) 2,794 7.7 -24.6°
